Regional Weather Roundup
Issued by NWS

Home | Current Version | Previous Version | Text Only | Print | Product List | Glossary Off
Versions: 1 2 3 4 5 6 7 8 9 10 11 12 13 14 15 16 17 18 19 20 21 22 23 24 25 26 27 28 29 30 31 32 33 34 35 36 37 38 39 40 41 42 43 44 45 46 47 48 49 50

000
ASUS45 KSLC 310810
RWRUT

UTAH REGIONAL WEATHER ROUNDUP
NATIONAL WEATHER SERVICE SALT LAKE CITY UT
100 AM MST SAT JAN 31 2015

UTZ001>011-023>025-310900-

NORTHERN UTAH

CITY           SKY/WX    TMP DP  RH WIND       PRES   REMARKS
BRIGHAM CITY   CLOUDY    40  31  68 N6        29.99S
HILL AFB       CLOUDY    40  30  68 E10       29.96R WCI  33
LOGAN          CLOUDY    35  31  85 CALM      30.02S
OGDEN          CLOUDY    40  33  76 NW8       29.96S WCI  34
PROVO AIRPORT  CLOUDY    39  34  81 CALM      29.95F
SALT LAKE CITY CLOUDY    40  36  86 W9        29.96F WCI  34
VERNAL         FOG       36  36 100 CALM      29.95S VSB<1/4
WENDOVER       CLOUDY    39  28  65 CALM      30.02F
HEBER CITY     MIX PCPN  34  32  93 CALM      29.97F
WEST JORDAN    CLOUDY    41  36  81 N5        29.97S

$$

UTZ012>022-026-027-310900-

SOUTHERN/CENTRAL UTAH

CITY           SKY/WX    TMP DP  RH WIND       PRES   REMARKS
BLANDING       CLOUDY    32  32 100 W3        30.01S
BRYCE CANYON   LGT SNOW  31  29  92 CALM      29.92S
CEDAR CITY     CLOUDY    37  35  92 NW3       29.90S
DELTA          CLOUDY    38  37  98 N9        29.93S WCI  31
HANKSVILLE     CLOUDY    39  37  93 CALM      29.96F
MILFORD        LGT RAIN  38  35  89 N13       29.92F WCI  30
MOAB/CYNLANDS  LGT RAIN  40  37  89 CALM      29.92F
PRICE          CLOUDY    37  34  89 CALM      29.92F
ST GEORGE      CLOUDY    46  43  87 CALM      29.91S
KANAB          CLOUDY    37  36  93 N6        29.95S WCI  33

$$

REGIONAL REPORTS     COLORADO/ARIZONA

CITY           SKY/WX    TMP DP  RH WIND       PRES   REMARKS
CRAIG, CO      LGT RAIN  33  32  96 CALM      29.94F FOG
GRAND JUNCTION LGT RAIN  38  38 100 CALM      29.92F VSB 1/2
RIFLE          LGT RAIN  36  35  96 CALM      29.92F FOG
MONTROSE       CLOUDY    38  36  92 CALM      29.94F
CORTEZ         MIX PCPN  36  34  92 SW8       29.94F WCI  30
PAGE, AZ       NOT AVBL
GRAND CANYON   CLOUDY    38  38 100 S5        29.89F WCI  34
KINGMAN        CLOUDY    46  44  93 NE5       29.86F
FLAGSTAFF      CLOUDY    37  35  92 SW3       29.89F FOG

$$

REGIONAL REPORTS    NEVADA/IDAHO/WYOMING

CITY           SKY/WX    TMP DP  RH WIND       PRES   REMARKS
LAS VEGAS, NV  LGT RAIN  50  45  83 VRB3      29.84S
ELY            CLOUDY    33  32  96 N15       29.97R WCI  23
ELKO           PTCLDY    28  26  92 W5        30.05S WCI  23
POCATELLO, ID  CLOUDY    33  31  92 SW10      30.10S WCI  25
BURLEY         CLOUDY    34  31  88 W6        30.12S WCI  29
EVANSTON, WY   FLURRIES  31  27  85 E8        30.00F WCI  23
ROCK SPRINGS   FLURRIES  28  25  88 NE12      30.00F WCI  18
KEMMERER       CLOUDY    30  28  93 N8        30.02S WCI  23

$$



USA.gov is the U.S. government's official web portal to all federal, state and local government web resources and services.